User: anonymous   Login
Location: Unspecified
(0.0000°N, 0.0000°E)
Time: 00:12:39
(UTC+00:00)
Language:

MICROSCOPE - Orbit

View from above orbital plane
View from above orbital plane
View from above satellite
View from above satellite

Ground track
Ground track

The orbit data is extracted from the following two-line orbital elements,

1 41457U 16025B   18112.60827930 -.00000001 +00000-0 +10307-4 0  9990
2 41457 098.2380 119.2756 0001912 070.8620 289.2783 14.53969126105584
Epoch (UTC): 22 April 2018 14:35:55
Eccentricity: 0.0001912
inclination: 98.2380°
perigee height: 711 km
apogee height: 714 km
right ascension of ascending node: 119.2756°
argument of perigee: 70.8620°
revolutions per day: 14.53969126
mean anomaly at epoch: 289.2783°
orbit number at epoch: 10558

The dashed part of the orbit path shows where the satellite is in the earth's shadow,  

DLR